TimeCET,TemperatureF,Dew PointF,Humidity,Sea Level PressureIn,VisibilityMPH,Wind Direction,Wind SpeedMPH,Gust SpeedMPH,PrecipitationIn,Events,Conditions,WindDirDegrees,DateUTC
12:25 AM,35.6,35.6,100,29.92,-9999.0,SSE,3.5,-,N/A,,Mist,150,2012-11-16 23:25:00
12:55 AM,35.6,35.6,100,29.89,1.8,SE,3.5,-,N/A,,Mist,130,2012-11-16 23:55:00
1:25 AM,35.6,35.6,100,29.89,1.7,SE,3.5,-,N/A,,Mist,130,2012-11-17 00:25:00
1:55 AM,35.6,33.8,93,29.86,1.6,ESE,3.5,-,N/A,,Mist,110,2012-11-17 00:55:00
2:25 AM,35.6,35.6,100,29.86,1.7,SE,3.5,-,N/A,,Mist,140,2012-11-17 01:25:00
2:55 AM,35.6,35.6,100,29.86,-9999.0,SE,3.5,-,N/A,,Mist,130,2012-11-17 01:55:00
3:08 AM,35.6,33.8,93,29.86,-9999.0,SE,2.3,-,N/A,,Mist,130,2012-11-17 02:08:00
3:25 AM,35.6,35.6,100,29.83,3.1,SE,3.5,-,N/A,,Mist,130,2012-11-17 02:25:00
3:30 AM,35.6,35.6,100,29.83,-9999.0,SE,3.5,-,N/A,,Mist,130,2012-11-17 02:30:00
3:36 AM,35.6,35.6,100,29.83,3.1,SE,4.6,-,N/A,,Mist,130,2012-11-17 02:36:00
3:46 AM,35.6,35.6,100,29.83,3.1,SE,3.5,-,N/A,,Mist,130,2012-11-17 02:46:00
3:55 AM,35.6,35.6,100,29.83,3.1,SE,3.5,-,N/A,,Mist,140,2012-11-17 02:55:00
4:25 AM,35.6,35.6,100,29.83,3.7,SE,3.5,-,N/A,,Mist,140,2012-11-17 03:25:00
4:55 AM,37.4,35.6,93,29.80,4.3,SE,4.6,-,N/A,,Mostly Cloudy,140,2012-11-17 03:55:00
5:16 AM,37.4,35.6,93,29.80,5.0,SE,4.6,-,N/A,,Scattered Clouds,140,2012-11-17 04:16:00
5:25 AM,37.4,35.6,93,29.80,5.0,SSE,4.6,-,N/A,,Scattered Clouds,150,2012-11-17 04:25:00
5:38 AM,37.4,35.6,93,29.80,5.6,SSE,4.6,-,N/A,,Scattered Clouds,150,2012-11-17 04:38:00
5:55 AM,37.4,35.6,93,29.80,6.2,SSE,4.6,-,N/A,,Scattered Clouds,160,2012-11-17 04:55:00
6:25 AM,37.4,33.8,87,29.80,6.2,SSE,4.6,-,N/A,,Unknown,160,2012-11-17 05:25:00
6:55 AM,37.4,33.8,87,29.80,6.2,South,3.5,-,N/A,,Scattered Clouds,190,2012-11-17 05:55:00
7:25 AM,37.4,35.6,93,29.80,6.2,South,5.8,-,N/A,,Mostly Cloudy,190,2012-11-17 06:25:00
7:37 AM,39.2,35.6,87,29.80,6.2,SSW,6.9,-,N/A,,Scattered Clouds,210,2012-11-17 06:37:00
7:38 AM,39.2,35.6,87,29.80,6.2,SSW,6.9,-,N/A,,Mostly Cloudy,210,2012-11-17 06:38:00
7:55 AM,39.2,37.4,93,29.80,6.2,SW,10.4,-,N/A,,Overcast,220,2012-11-17 06:55:00
8:06 AM,39.2,37.4,93,29.80,4.3,SW,10.4,-,N/A,,Overcast,220,2012-11-17 07:06:00
8:12 AM,39.2,37.4,93,29.80,4.3,SW,10.4,-,N/A,,Overcast,220,2012-11-17 07:12:00
8:25 AM,39.2,37.4,93,29.80,4.3,SSW,9.2,-,N/A,,Overcast,200,2012-11-17 07:25:00
8:55 AM,39.2,37.4,93,29.83,3.1,SSW,9.2,-,N/A,,Overcast,210,2012-11-17 07:55:00
8:59 AM,39.2,39.2,100,29.83,-9999.0,SSW,8.1,-,N/A,,Overcast,210,2012-11-17 07:59:00
9:25 AM,39.2,39.2,100,29.80,-9999.0,SSW,10.4,-,N/A,,Overcast,200,2012-11-17 08:25:00
9:38 AM,41.0,39.2,93,29.80,-9999.0,SSW,9.2,-,N/A,,Overcast,200,2012-11-17 08:38:00
9:55 AM,41.0,39.2,93,29.80,3.1,SSW,8.1,-,N/A,,Overcast,200,2012-11-17 08:55:00
10:18 AM,41.0,41.0,100,29.80,-9999.0,SSW,8.1,-,N/A,,Overcast,200,2012-11-17 09:18:00
10:25 AM,41.0,41.0,100,29.80,-9999.0,SSW,8.1,-,N/A,,Overcast,200,2012-11-17 09:25:00
10:55 AM,41.0,41.0,100,29.83,-9999.0,South,8.1,-,N/A,,Overcast,190,2012-11-17 09:55:00
11:19 AM,42.8,41.0,93,29.83,1.4,SSW,6.9,-,N/A,,Mostly Cloudy,200,2012-11-17 10:19:00
11:25 AM,42.8,41.0,93,29.83,1.3,SSW,9.2,-,N/A,,Overcast,200,2012-11-17 10:25:00
11:55 AM,42.8,42.8,100,29.80,1.2,SSW,8.1,-,N/A,,Mostly Cloudy,200,2012-11-17 10:55:00
12:25 PM,42.8,42.8,100,29.80,1.6,SSW,6.9,-,N/A,,Overcast,200,2012-11-17 11:25:00
12:40 PM,44.6,42.8,93,29.80,1.7,South,6.9,-,N/A,,Overcast,190,2012-11-17 11:40:00
12:44 PM,44.6,42.8,93,29.80,1.8,South,8.1,-,N/A,,Overcast,190,2012-11-17 11:44:00
12:55 PM,44.6,44.6,100,29.80,-9999.0,South,8.1,-,N/A,,Overcast,190,2012-11-17 11:55:00
1:05 PM,44.6,44.6,100,29.80,-9999.0,South,6.9,-,N/A,,Mostly Cloudy,190,2012-11-17 12:05:00
1:25 PM,44.6,44.6,100,29.80,1.9,South,6.9,-,N/A,,Overcast,190,2012-11-17 12:25:00
1:55 PM,44.6,44.6,100,29.80,1.8,SSW,6.9,-,N/A,,Overcast,200,2012-11-17 12:55:00
2:14 PM,44.6,44.6,100,29.77,2.5,SSW,5.8,-,N/A,,Overcast,200,2012-11-17 13:14:00
2:25 PM,46.4,44.6,93,29.77,3.1,South,8.1,-,N/A,,Overcast,190,2012-11-17 13:25:00
2:38 PM,46.4,44.6,93,29.77,3.7,SSW,6.9,-,N/A,,Overcast,200,2012-11-17 13:38:00
2:55 PM,46.4,44.6,93,29.77,3.1,SSW,4.6,-,N/A,,Overcast,200,2012-11-17 13:55:00
3:25 PM,46.4,46.4,100,29.77,3.7,South,4.6,-,N/A,,Overcast,190,2012-11-17 14:25:00
3:55 PM,46.4,46.4,100,29.77,4.3,SSW,5.8,-,N/A,,Overcast,200,2012-11-17 14:55:00
4:25 PM,46.4,46.4,100,29.77,4.3,SSW,5.8,-,N/A,,Overcast,210,2012-11-17 15:25:00
4:55 PM,46.4,46.4,100,29.80,3.7,SSW,5.8,-,N/A,,Overcast,210,2012-11-17 15:55:00
5:25 PM,46.4,46.4,100,29.77,4.3,SSW,5.8,-,N/A,,Overcast,200,2012-11-17 16:25:00
5:55 PM,46.4,46.4,100,29.77,5.0,South,4.6,-,N/A,,Overcast,190,2012-11-17 16:55:00
6:12 PM,46.4,46.4,100,29.77,5.0,South,5.8,-,N/A,,Overcast,190,2012-11-17 17:12:00
6:17 PM,46.4,46.4,100,29.77,5.0,South,5.8,-,N/A,,Overcast,190,2012-11-17 17:17:00
6:25 PM,46.4,46.4,100,29.77,5.0,South,6.9,-,N/A,,Overcast,190,2012-11-17 17:25:00
6:42 PM,48.2,46.4,93,29.80,5.0,South,6.9,-,N/A,,Overcast,190,2012-11-17 17:42:00
6:46 PM,48.2,46.4,93,29.80,5.0,South,5.8,-,N/A,,Overcast,190,2012-11-17 17:46:00
6:55 PM,48.2,46.4,93,29.80,4.3,South,5.8,-,N/A,,Overcast,190,2012-11-17 17:55:00
7:09 PM,48.2,46.4,93,29.80,5.0,South,5.8,-,N/A,,Overcast,190,2012-11-17 18:09:00
7:25 PM,48.2,46.4,93,29.80,5.0,SW,6.9,-,N/A,,Overcast,220,2012-11-17 18:25:00
7:49 PM,48.2,46.4,93,29.80,4.3,SSW,4.6,-,N/A,,Overcast,200,2012-11-17 18:49:00
7:55 PM,48.2,46.4,93,29.80,4.3,SSW,4.6,-,N/A,,Overcast,200,2012-11-17 18:55:00
8:25 PM,48.2,46.4,93,29.80,4.3,South,4.6,-,N/A,,Overcast,190,2012-11-17 19:25:00
8:55 PM,48.2,46.4,93,29.80,4.3,SSW,5.8,-,N/A,,Overcast,200,2012-11-17 19:55:00
8:56 PM,48.2,46.4,93,29.80,4.3,SSW,5.8,-,N/A,,Overcast,200,2012-11-17 19:56:00
9:25 PM,48.2,46.4,93,29.80,4.3,South,4.6,-,N/A,,Overcast,180,2012-11-17 20:25:00
9:55 PM,48.2,46.4,93,29.80,3.7,SSW,4.6,-,N/A,,Overcast,210,2012-11-17 20:55:00
10:04 PM,48.2,46.4,93,29.80,-9999.0,SSW,4.6,-,N/A,,Overcast,210,2012-11-17 21:04:00
10:25 PM,48.2,46.4,93,29.80,-9999.0,SSW,4.6,-,N/A,,Overcast,210,2012-11-17 21:25:00
10:55 PM,48.2,46.4,93,29.80,1.9,SW,5.8,-,N/A,,Drizzle,220,2012-11-17 21:55:00
11:25 PM,48.2,46.4,93,29.80,1.7,SSW,4.6,-,N/A,,Drizzle,210,2012-11-17 22:25:00
11:55 PM,48.2,46.4,93,29.80,-9999.0,SW,4.6,-,N/A,Rain,Rain,220,2012-11-17 22:55:00